Location: Nebula Knoll Observatory
(43.6666°N, 71.0000°W)
Time: 04:53:36
(UTC-04:00)

Daily predictions for brighter satellites

Satellite Brightness Start Highest point End
(mag) Time Altitude Azimuth Time Altitude Azimuth Time Altitude Azimuth
SeaSat 1 3.8 00:09:02 37° N 00:09:02 37° N 00:12:09 10° NNW
Lacrosse 5 3.9 00:07:55 10° NW 00:09:43 22° WNW 00:09:43 22° WNW
Cosmos 1459 Rocket 4.4 00:15:57 58° NNW 00:15:57 58° NNW 00:20:58 10° N
Cosmos 1943 Rocket 4.1 00:33:52 10° NW 00:36:08 20° WNW 00:36:08 20° WNW
H-2A R/B 4.4 00:45:23 21° NW 00:45:23 21° NW 00:47:00 10° NNW
COSMOS 2406 4.2 01:08:41 43° NE 01:08:41 43° NE 01:12:29 10° NNE
Cosmos 2233 Rocket 4.4 01:08:31 58° N 01:08:31 58° N 01:13:23 10° N
ADEOS Rocket 3.6 01:15:39 10° N 01:21:59 54° NW 01:21:59 54° NW
Cosmos 2082 Rocket 4.1 01:24:50 20° E 01:24:50 20° E 01:27:45 10° NE
Mayak 1.6 01:32:48 10° NNW 01:33:35 12° NW 01:33:35 12° NW
Cosmos 1656 4.4 01:35:22 10° NNW 01:40:38 50° NE 01:40:38 50° NE
Resurs 1-4 Rocket 4.1 01:38:59 10° NE 01:42:27 19° E 01:42:27 19° E
Cosmos 1833 Rocket 3.5 01:59:55 43° E 01:59:55 43° E 02:04:26 10° NE
Cosmos 2369 4.1 01:54:41 10° NNW 01:59:23 59° N 01:59:23 59° N
Lacrosse 4 Rocket 3.2 02:02:18 10° NNW 02:05:06 32° N 02:05:06 32° N
Gbstr 26 Del rocket 4.4 02:16:39 57° W 02:18:17 73° NNW 02:25:24 10° ENE
Iridium 4 Rocket 4.5 02:21:01 35° ENE 02:21:01 35° ENE 02:24:27 10° NNE
Cosmos 1607 3.9 02:20:37 82° ESE 02:20:37 82° ESE 02:27:08 10° NE
Cosmos 2034 Rocket 4.0 02:25:57 68° WNW 02:25:57 68° WNW 02:32:00 10° N
ARIANE 5 R/B 3.8 02:27:52 10° NNE 02:32:34 32° E 02:33:21 31° ESE
Lacrosse 5 rocket 2.7 02:35:46 38° NE 02:35:46 38° NE 02:38:23 10° NE
Cosmos 1867 3.9 02:28:53 10° NW 02:33:14 57° NW 02:33:14 57° NW
Cosmos 1092 Rocket 3.9 02:30:31 10° N 02:36:48 84° E 02:37:32 71° SSE
Cosmos 332 Rocket 4.3 02:37:47 54° N 02:37:47 54° N 02:41:37 10° NNE
Cosmos 371 Rocket 3.7 02:38:31 58° N 02:38:31 58° N 02:42:31 10° NNE
Meteor 1-23 Rocket 4.2 02:38:30 81° WNW 02:38:30 81° WNW 02:44:07 10° N
Meteor 2-4 Rocket 4.2 02:39:37 45° NW 02:39:37 45° NW 02:44:05 10° N
Exosat Rocket 4.1 02:35:06 10° NNW 02:41:05 79° WSW 02:42:45 56° S
Okean 2 4.5 02:43:32 43° NNE 02:43:32 43° NNE 02:46:24 10° NNE
CZ-2D R/B 2.2 02:41:36 10° NNE 02:46:59 68° ESE 02:47:19 66° SE
SL-16 R/B 2.4 02:51:48 64° S 02:52:50 81° WSW 02:59:09 10° NNW
Cosmos 1980 Rocket 2.2 02:50:26 10° NNW 02:56:04 75° ENE 02:58:11 39° SE
Cosmos 1697 Rocket 2.8 02:52:51 10° NNW 02:57:46 57° WNW 02:57:46 57° WNW
IRS-1D 3.6 02:53:45 10° NNE 02:58:56 73° ESE 02:59:31 66° SSE
IRS-1C 3.9 02:57:50 10° NNE 03:03:12 87° WNW 03:03:43 74° SSW
Cosmos 1627 Rocket 4.4 02:58:22 10° N 03:04:46 86° W 03:06:37 50° S
Cosmos 2082 Rocket 2.3 03:06:40 55° W 03:07:11 57° WNW 03:12:47 10° NNE
ADEOS II 4.0 03:03:28 10° NE 03:07:43 24° E 03:11:24 12° SE
SL-16 R/B 3.8 03:03:38 10° N 03:08:49 35° NE 03:13:58 10° ESE
Okean 1-7 Rocket 3.6 03:09:03 71° ESE 03:09:11 72° E 03:13:42 10° NNE
H-2A R/B 3.2 03:07:29 10° N 03:10:57 44° NW 03:10:57 44° NW
Cosmos 304 Rocket 3.6 03:11:51 80° S 03:12:06 86° ESE 03:16:58 10° NNE
UNKNOWN OBJECT B 3.8 03:14:15 10° NNE 03:17:53 38° E 03:18:22 36° ESE
Cosmos 2058 Rocket 4.1 03:14:09 10° N 03:18:24 44° ENE 03:20:58 21° SE
ATLAS 3B R/B 3.7 03:16:15 23° SSE 03:19:55 39° ESE 03:26:16 10° NE
MOZ.5/SAFIR/RUBIN 5/SL-8 3.6 03:21:26 69° WSW 03:21:34 70° WSW 03:26:20 10° NNW
Meteor 1-22 Rocket 4.4 03:16:26 10° N 03:22:26 74° ENE 03:26:19 22° SSE
Cosmos 1544 3.7 03:18:53 10° N 03:21:44 52° N 03:21:44 52° N
Resurs 1-4 Rocket 2.2 03:17:40 10° N 03:22:50 58° WNW 03:23:33 53° WSW
Cosmos 2228 3.7 03:18:39 10° N 03:22:50 52° ENE 03:24:39 30° SE
Cosmos 2322 Rocket 3.4 03:19:07 10° NNW 03:24:29 43° ENE 03:29:48 10° SE
Cosmos 1606 Rocket 3.4 03:21:08 10° N 03:25:29 89° W 03:25:51 75° S
Cosmos 1634 Rocket 4.1 03:24:52 47° WSW 03:26:17 57° WNW 03:32:28 10° N
ERS-1 4.4 03:26:56 10° N 03:31:52 65° WNW 03:32:47 54° WSW
NPP 4.5 03:28:59 10° N 03:33:47 34° WNW 03:34:34 32° W
Cosmos 1763 Rocket 3.8 03:34:40 35° S 03:36:47 65° ESE 03:42:04 10° NNE
SJ 16-02 3.9 03:33:46 10° N 03:37:16 22° ENE 03:40:45 10° ESE
Cosmos 1892 Rocket 3.5 03:38:18 52° S 03:39:22 88° E 03:43:47 10° N
Cosmos 2279 Rocket 3.9 03:36:56 37° SSW 03:39:34 75° W 03:45:52 10° N
USA 215 4.1 03:35:47 10° ENE 03:41:50 39° SE 03:45:35 21° S
Cosmos 1025 Rocket 4.1 03:42:56 28° WNW 03:42:56 28° WNW 03:46:20 10° NNW
Cosmos 1842 3.6 03:41:25 40° SSE 03:42:38 62° E 03:46:34 10° NNE
ATLAS CENTAUR R/B 4.4 03:39:58 10° N 03:43:09 19° NE 03:46:26 10° E
Cosmos 1833 Rocket 3.8 03:41:36 26° W 03:43:09 29° NW 03:48:04 10° N
COSMOS 2487 3.6 03:45:12 32° NW 03:45:12 32° NW 03:47:57 10° N
Transit 2A Rocket 4.4 03:42:42 10° NNW 03:47:16 84° WSW 03:51:35 10° SSE
Cosmos 2026 Rocket 4.4 03:41:24 10° NNW 03:47:25 45° W 03:49:30 34° SW
Cosmos 2208 Rocket 4.4 03:46:29 39° WSW 03:47:53 49° WNW 03:53:01 10° N
Cosmos 1898 Rocket 3.6 03:45:17 10° NNW 03:50:21 53° WSW 03:52:29 32° SSW
BREEZE-M DEB (TANK) 4.2 03:53:17 13° SE 03:53:17 13° SE 03:54:05 10° ESE
Cosmos 44 3.4 03:51:30 10° NW 03:56:46 88° SW 04:02:09 10° SSE
Cosmos 1805 3.1 03:53:33 10° N 03:57:28 81° W 03:59:11 32° S
Cosmos 1953 3.7 03:54:04 10° N 03:57:56 39° ENE 04:01:45 10° SSE
Cosmos 1937 Rocket 3.4 03:55:35 10° NNW 04:00:42 60° WSW 04:05:30 11° S
BREEZE-M R/B 2.8 04:00:43 48° SW 04:01:36 74° SSE 04:07:12 10° ENE
Cosmos 1766 3.6 04:00:53 10° NNW 04:04:34 42° W 04:04:57 41° WSW
Cosmos 724 4.3 04:05:14 29° SW 04:08:12 67° NW 04:14:00 10° NNE
Timation 2 Rocket 3.8 04:07:40 25° SSW 04:11:23 81° WNW 04:17:23 10° NNE
ARIANE 5 R/B 3.4 04:06:57 10° N 04:11:39 34° WNW 04:13:42 25° WSW
Aureole 2 Rocket 4.5 04:09:47 10° N 04:13:19 33° ENE 04:16:37 10° SE
Lacrosse 5 rocket 3.2 04:11:25 14° WNW 04:13:50 22° NNW 04:17:03 10° NNE
Cosmos 990 Rocket 4.3 04:10:59 10° NNW 04:15:50 44° WSW 04:20:38 10° S
Okean O Rocket 4.1 04:15:17 10° NE 04:18:34 20° E 04:21:49 10° SE
USA 238 DEB 3.7 04:17:41 21° SW 04:22:30 82° NW 04:29:30 10° NE
USA 238 3.7 04:17:45 21° SW 04:22:36 82° NW 04:29:37 10° NE
Cosmos 2266 Rocket 3.9 04:16:48 10° NNW 04:22:50 69° W 04:28:56 10° S
Cosmos 1814 Rocket 4.2 04:20:49 24° SW 04:23:42 51° WNW 04:28:46 10° NNE
Cosmos 1758 3.2 04:20:09 10° NNW 04:24:07 74° W 04:28:05 10° S
Cosmos 44 Rocket 3.3 04:20:24 10° NW 04:25:32 74° WSW 04:30:42 10° SSE
Helios 1A Rocket 4.1 04:22:25 10° N 04:25:56 27° WNW 04:27:23 22° W
CZ-2D R/B 3.8 04:22:53 10° NNW 04:26:29 18° WNW 04:28:39 15° W
CZ-2D R/B 4.3 04:23:32 10° N 04:27:12 32° WNW 04:28:56 23° WSW
Cosmos 372 Rocket 4.4 04:22:16 10° NNW 04:27:29 65° ENE 04:32:37 10° SSE
Cosmos 2150 Rocket 4.3 04:24:09 10° NNW 04:29:22 47° WSW 04:34:34 10° S
DNEPR-1 R/B 3.7 04:26:52 18° SSW 04:29:52 69° ESE 04:34:27 10° NE
Cosmos 1733 3.1 04:30:14 10° NNW 04:34:05 68° W 04:37:55 10° S
SL-16 R/B 4.2 04:36:53 12° W 04:37:23 12° W 04:39:52 10° WNW
Cosmos 2360 Rocket 2.6 04:31:56 10° NNW 04:37:34 69° ENE 04:43:10 10° SSE
Cosmos 1980 Rocket 3.6 04:36:06 10° WNW 04:39:21 16° W 04:39:51 16° WSW
PSLV R/B 3.5 04:37:45 10° NNE 04:42:00 86° ESE 04:46:12 10° SSW
ADEOS II 2.5 04:42:37 10° N 04:47:37 45° WNW 04:52:21 11° SW
Cosmos 1812 Rocket 3.6 04:47:36 10° NNW 04:52:02 62° W 04:56:25 10° S
Cosmos 841 Rocket 4.1 04:48:22 14° SW 04:52:22 40° WNW 04:57:17 10° N
Cosmos 2082 Rocket 4.3 04:50:38 10° WNW 04:52:35 12° NW 04:54:33 10° NNW
SL-16 R/B 2.7 04:47:44 10° NW 04:52:56 38° WSW 04:58:06 10° S
CZ-4B R/B 3.0 04:49:49 10° NNE 04:54:06 85° ESE 04:58:06 10° SSW
COSMOS 2428 4.1 04:51:10 10° NNW 04:56:37 43° ENE 05:01:59 10° SE
Cosmos 1602 Rocket 4.0 04:53:52 10° SSW 04:57:57 41° WNW 05:02:04 10° N
NOSS 3-2 (C) 3.6 04:53:40 10° SSW 04:59:35 81° SE 05:06:12 10° NE
Cosmos 1470 3.1 04:55:57 10° NNW 04:59:46 44° W 05:03:33 10° SSW
Cosmos 1758 Rocket 4.0 04:59:57 10° S 05:04:13 65° E 05:08:33 10° NNE
Cosmos 1238 Rocket 4.2 04:57:44 10° S 05:04:15 89° WNW 05:11:00 10° N
Cosmos 2219 Rocket 4.0 04:59:28 10° N 05:04:37 35° NE 05:09:42 10° ESE
Cosmos 540 Rocket 3.8 05:03:17 10° SW 05:08:15 49° WNW 05:13:17 10° N
Cosmos 2322 Rocket 3.0 05:03:31 10° NW 05:08:19 30° WSW 05:13:06 10° SSW
Meteor 1-16 Rocket 4.2 05:04:28 10° N 05:10:12 87° WSW 05:15:40 10° S
ATLAS 3B R/B 3.1 05:03:32 10° WSW 05:10:29 51° NW 05:17:12 10° NNE
USA 161 1.6 05:09:26 10° SSE 05:12:29 89° NE 05:15:26 10° NNW
SJ 16-02 1.9 05:11:54 10° NW 05:15:59 37° WSW 05:20:02 10° S
NOSS 3-2 (A) 3.7 05:10:40 10° SW 05:16:33 61° NW 05:23:10 10° NNE
Cosmos 1833 4.4 05:12:08 10° SW 05:17:54 67° WNW 05:23:41 10° NNE
Cosmos 1707 3.3 05:14:41 10° SSW 05:18:20 39° WNW 05:22:01 10° N
Cosmos 1378 4.2 05:15:31 10° SW 05:18:46 28° WNW 05:22:03 10° NNW
